Вернуться в каталог

STARLINK-36985

АктивенСвязьVLEO
NORAD 68014·PAYLOAD·🇺🇸 United States

Запущен Feb 27, 2026 с Vandenberg Space Force Base

Loading…

Ближайшие Пролёты (ближайшие 24 часа)

TLE

СвежийSource: CelesTrak SupGP

Эпоха: Sep 14, 2026, 21:19 UTC

1 68014C 26039AE  26257.88868056 -.00119960  00000+0 -43406-2 0  2573
2 68014  43.0033  60.1407 0001409 272.3089  33.8451 15.27672322    19

Отслеживайте STARLINK-36985 в реальном времени с AllMySat

Download on the App Store